COSMOS 2475 (743)

Last updated on Aug. 10, 2020, 5:34 a.m. UTC

1 37869U 11064C   20222.55643109  .00000009  00000-0  00000+0 0  9994
2 37869  64.5488 145.4224 0022307 262.3051 282.9355  2.13102196 68222
UTC
Height (km)
Latitude
Longitude
Inclination
Orbital Period
UTC large
Height (km)
Speed (km/s)
/
Latitude / Longitude
Inclination (degrees)
Orbital Period (minutes)
Azimuth
Elevation
Range (km)
Doppler Factor
iOS Compass Heading
iOS Angle

Next 30 passes for location: Hong Kong

Rise time Rise Azimuth (degrees) Set time Set Azimuth (degrees) Duration Max altitude (degrees)

No matching passes for this satellites